Location: Skalnate Pleso
(49.1889°N, 20.2450°E)
Time: 17:16:54
(UTC+01:00)

ASTEX 1 - Pass Details

Date: 19 November 2019
Orbit: 721 x 743 km, 92.7° (Epoch: 14 December)

Event Time Altitude Azimuth Distance (km) Brightness Sun altitude
Rises 04:17:58 0° 180° (S) 3,154 6.7 -25.3°
Reaches altitude 10° 04:20:16 10° 183° (S) 2,239 5.9 -24.9°
Enters shadow 04:24:30 59° 219° (SW) 853 3.5 -24.2°
Exits shadow 04:30:03 11° 349° (N) 2,205 5.7 -23.3°
Drops below altitude 10° 04:30:15 10° 350° (N) 2,282 5.8 -23.3°
Sets 04:32:33 0° 353° (N) 3,196 6.6 -22.9°
